Tracking 23757 objects as of 24-Oct-2021
HD Live streaming from Space Station
objects crossing your sky now

FREGAT DEB

Track FREGAT DEB now!
10-day predictions


NORAD ID: 45647
Int'l Code: 2011-037AP
Perigee: 532.5 km
Apogee: 1,466.3 km
Inclination: 51.4 °
Period: 105.0 minutes
Semi major axis: 7370 km
RCS: Unknown
Launch date: July 18, 2011
Source: Commonwealth of Independent States (former USSR) (CIS)
Launch site: TYURATAM MISSILE AND SPACE COMPLEX (TTMTR)

Note: This is SATELLITE DEBRIS
aabbcc
Your satellite tracking list
Your tracking list is empty




NASA's NSSDC Master Catalog

Two Line Element Set (TLE):
1 45647U 11037AP  21297.48250539  .00044553  00000-0  11094-1 0  9992
2 45647  51.4249 274.6427 0633497 129.7009 236.1537 13.72035069 63355
Source of the keplerian elements: AFSPC